Zurück zum Katalog

SAR LUPE 1

AktivMilitärPO
NORAD 29658·PAYLOAD·🇩🇪 Germany

Gestartet Dec 19, 2006 von Plesetsk Cosmodrome

Loading…

Nächste Überflüge (nächste 24 Stunden)

TLE

AlterndSource: Mike McCants

Epoche: Sep 5, 2026, 19:14 UTC

1 29658U 06060A   26248.80197491 0.00000000  00000-0  00000-0 0    06
2 29658  98.1129 287.7795 0002000 290.5808  69.4190 15.27404806    07

Verfolge SAR LUPE 1 in Echtzeit mit AllMySat

Download on the App Store